Flag for Uzbekistan Weather past 2 weeks in Tashkent, Uzbekistan

Now
64 °F

Clear.


Feels Like: 64 °F
Forecast: 63 / 85 °F
Wind: No wind

Location: Tashkent

Current Time: Aug 28, 2015 at 7:58:47 AM

Latest Report: Aug 28, 2015 at 7:00 AM


Visibility: 4 mi

Pressure: 30.07 "Hg

Humidity: 73%

Dew point: 55 °F

Location of TashkentLocation

Historic Weather in Tashkent — Graph

°F

Tashkent temperature yesterday

Maximum temperature yesterday: 75 °F (at 3:00 PM)
Minimum temperature yesterday: 63 °F (at 10:00 PM)
Average temperature yesterday: 68 °F

Past Weeks' High & Low Weather Summary

 TemperatureHumidityPressure
High104 °F (Aug 19, 3:30 PM)94% (Aug 27, 9:30 PM)30.07 "Hg (Aug 27, 9:30 PM)
Low57 °F (Aug 26, 6:00 AM)7% (Aug 18, 1:00 PM)29.65 "Hg (Aug 22, 2:30 AM)
Average79 °F33%29.84 "Hg
* Reported Aug 13 6:00 AM — Aug 28 6:30 AM, Tashkent, Weather by CustomWeather, © 2015

Note: Actual official high and low records may vary slightly from our data, if they occured in-between our weather recording intervals... More about our weather records

Advertising

Tashkent weather history for previous 24 hours

 ConditionsComfort  
Time TempWeatherWind HumidityBarometerVisibility
6:30 AM
Fri, Aug 28
63 °FClear.2 mph77%30.07 "Hg4 mi
6:00 AM63 °FFog.5 mph77%30.07 "Hg3 mi
5:30 AM63 °FFog.2 mph77%30.07 "Hg2 mi
5:00 AM63 °FFog.7 mph77%30.04 "Hg2 mi
4:30 AM63 °FFog.5 mph83%30.04 "Hg2 mi
4:00 AM63 °FFog.8 mph83%30.04 "Hg2 mi
3:30 AM61 °FFog.6 mph94%30.04 "Hg1 mi
3:00 AM63 °FFog.6 mph88%30.04 "Hg2 mi
2:30 AM63 °FFog.6 mph88%30.04 "Hg2 mi
2:00 AM63 °FFog.7 mph94%30.04 "Hg2 mi
1:30 AM64 °FFog.7 mph88%30.04 "Hg1 mi
1:00 AM64 °FFog.6 mph88%30.04 "Hg2 mi
12:30 AM63 °FFog.5 mph94%30.07 "Hg2 mi
12:00 AM63 °FFog.6 mph88%30.07 "Hg2 mi
11:30 PM
Thu, Aug 27
64 °FFog.5 mph83%30.07 "Hg2 mi
10:30 PM63 °FFog.3 mph94%30.07 "Hg2 mi
10:00 PM63 °FFog.3 mph88%30.07 "Hg2 mi
9:30 PM64 °FFog.6 mph94%30.07 "Hg2 mi
9:00 PM64 °FFog.7 mph88%30.07 "Hg2 mi
8:30 PM64 °FFog.5 mph88%30.07 "Hg2 mi
8:00 PM64 °FFog.7 mph88%30.07 "Hg2 mi
7:30 PM66 °FFog.6 mph83%30.04 "Hg2 mi
7:00 PM68 °FFog.8 mph78%30.04 "Hg2 mi
6:30 PM68 °FFog.9 mph78%30.04 "Hg2 mi
6:00 PM70 °FClear.10 mph73%30.04 "Hg4 mi
5:30 PM72 °FPassing clouds.7 mph61%30.04 "HgN/A
5:00 PM72 °FPassing clouds.9 mph57%30.01 "HgN/A
4:30 PM73 °FPassing clouds.7 mph53%30.04 "HgN/A
4:00 PM73 °FPassing clouds.6 mph47%30.01 "HgN/A
3:30 PM73 °FPassing clouds.6 mph47%30.01 "HgN/A
3:00 PM75 °FPassing clouds.5 mph44%30.01 "HgN/A
2:30 PM73 °FPassing clouds.3 mph50%30.01 "Hg4 mi
2:00 PM73 °FPassing clouds.2 mph50%30.01 "Hg4 mi
1:30 PM72 °FPartly sunny.3 mph53%30.01 "Hg4 mi
1:00 PM68 °FPartly sunny.9 mph64%30.01 "Hg2 mi
12:30 PM66 °FFog.10 mph73%30.01 "Hg2 mi
12:00 PM66 °FSprinkles. Fog.6 mph73%30.01 "Hg2 mi
11:30 AM68 °FSprinkles. Overcast.5 mph64%30.01 "Hg3 mi
11:00 AM68 °FScattered clouds.5 mph60%30.01 "Hg3 mi
10:30 AM68 °FScattered clouds.10 mph64%30.01 "Hg3 mi
10:00 AM68 °FScattered clouds.10 mph60%30.01 "Hg4 mi
9:30 AM68 °FScattered clouds.6 mph53%30.01 "HgN/A
8:30 AM66 °FScattered clouds.5 mph56%29.98 "HgN/A
8:00 AM68 °FScattered clouds.1 mph43%29.95 "HgN/A
7:30 AM68 °FScattered clouds.No wind46%29.95 "HgN/A
7:00 AM66 °FPassing clouds.1 mph46%29.95 "HgN/A
Weather by CustomWeather, © 2015

See weather overviewHow to use our weather pages